www.pogodaiklimat.ru

Погода и климат >> Архив погоды >> Индонезия >> Энаротали


ПОГОДА в Энаротали

  • Прогноз погоды в Энаротали
  • Монитор погоды в Энаротали

АРХИВ ПОГОДЫ в Энаротали

Время (UTC), дата Ветер
(напр.,м/с)
 
Видим.   Явления Облачность Т
(С)
Тd
(С)
f
(%)
Тe
(С)
Тes
(С)
Комфортность P
(гПа)
Po
(гПа)
Тmin
(С)
Tmax
(С)
R
(мм)
R24
(мм)
S
(см)
00 9.09 З 2 9000 м 9/4 240 м
[Cu Sc Ac trans]
+18.6 +13.2 71 +20 +24 1010.5 825.2 +15.0
03 9.09 З 3 10 км 4/4 300 м
[Cu Sc Ac trans]
+22.0 +12.1 53 +24 +35 комфорт 1008.3 823.5
06 9.09 ЮЗ 5 6000 м 5/3 300 м
[Cu med, cong Ac trans Ci sp]
+22.4 +11.8 51 +25 +28 комфорт 1006.8 822.2
09 9.09 штиль 0 7000 м 6/3 300 м
[Cu med, cong Ac trans Ci ing]
+19.2 +13.7 70 +20 +20 1008.8 823.8
12 9.09 штиль 0 7000 м 6/3 300 м
[Cu med, cong Ac trans Ci ing]
+17.6 +13.3 76 +18 +18 1010.1 824.9 +24.0
21 9.09 штиль 0 5000 м осадки на расстоянии 6/4 240 м
[Cu Sc Ac As Ci sp]
+15.2 +12.9 86 +15 +15 1009.3 824.3
00 10.09 штиль 0 9000 м 3/3 210 м
[Cu med, cong Ac trans Ci fib]
+18.2 +13.6 75 +18 +29 1010.0 824.8 +15.0
03 10.09 З 3 9000 м 3/3 210 м
[Cu med, cong Ac trans Ci fib]
+23.0 +14.5 59 +27 +41 душно 1007.7 822.9
06 10.09 ЮЗ 2 9000 м 9/5 240 м
[Cb calv Ac cuf Ci ing]
+23.8 +11.6 46 +25 +28 комфорт 1006.0 821.6
09 10.09 Ю 2 5000 м мгла 9/5 240 м
[Cu Sc Ac As Ci sp]
+20.0 +12.8 63 +23 +23 комфорт 1008.0 823.2
12 10.09 штиль 0 4000 м мгла 9/6 240 м
[Cu Sc Ac As Ci sp]
+17.2 +12.5 74 +17 +17 1010.8 825.5 +24.6
21 10.09 З 2 6000 м мгла 8/3 300 м
[Cu Sc Ac trans Ci ing]
+15.8 +12.1 79 +16 +16 1010.4 825.2
00 11.09 штиль 0 9000 м 5/3 300 м
[Cu hum Ac trans Ci sp]
+17.8 +13.2 74 +18 +27 1010.9 825.6 +15.4
03 11.09 Ю 3 9000 м 5/3 300 м
[Cu hum Ac trans Ci sp]
+21.2 +12.7 58 +23 +35 комфорт 1008.7 823.8
06 11.09 штиль 0 7000 м мгла 8/4 300 м
[Cu Sc Ac cuf Ci sp]
+22.2 +13.1 56 +25 +31 комфорт 1007.0 822.4
09 11.09 штиль 0 9000 м 5/4 240 м
[Cu med, cong Ac trans Ci sp]
+19.8 +13.7 68 +21 +21 комфорт 1008.6 823.7
12 11.09 штиль 0 7000 м 5/4 240 м
[Cu med, cong Ac trans Ci sp]
+17.4 +12.4 72 +17 +17 1011.1 825.8 +23.4
21 11.09 штиль 0 5000 м мгла 10/8 180 м
[Cu Sc As trans]
+14.8 +12.1 84 +15 +15 1011.0 825.6
00 12.09 В 2 10 км 3/3 300 м
[Cu Sc]
+18.2 +12.9 71 +19 +28 1011.5 826.0 +14.8
03 12.09 З 4 10 км 3/3 300 м
[Cu Sc]
+22.0 +13.7 59 +25 +35 комфорт 1008.7 823.8
06 12.09 З 3 9000 м 4/1 300 м
[Cu med, cong Ac trans Ci sp]
+23.2 +14.0 56 +27 +34 душно 1007.6 822.9
09 12.09 штиль 0 9000 м 5/1 300 м
[Cu Sc As trans Ci]
+20.2 +14.5 70 +22 +22 комфорт 1009.3 824.2
12 12.09 штиль 0 9000 м 5/1 300 м
[Cu Sc As trans Ci]
+18.6 +13.7 73 +19 +19 1010.9 825.5 +23.8
21 12.09 В 2 5000 м осадки на расстоянии 9/4 270 м
[Cu Sc Ac As Ci sp]
+16.2 +13.6 85 +16 +16 1010.9 825.6
00 13.09 штиль 0 9000 м 5/3 270 м
[Cu med, cong Ac trans Ci sp]
+19.4 +13.9 70 +21 +30 комфорт 1011.5 826.0 +16.0
03 13.09 З 4 9000 м 5/3 240 м
[Cu med, cong Ac trans Ci sp]
+23.4 +16.0 63 +28 +37 душно 1008.2 823.3
06 13.09 З 4 10 км 5/4 270 м
[Cu Sc Ac lent Ci fib]
+24.8 +13.7 50 +27 +31 жарко 1007.3 822.6
09 13.09 штиль 0 8000 м 5/4 270 м
[Cu Sc Ac cuf Ci ing]
+21.8 +13.4 59 +25 +25 комфорт 1009.1 824.1
12 13.09 штиль 0 7000 м 5/4 270 м
[Cu Sc Ac cuf Ci ing]
+18.0 +13.1 73 +18 +18 1011.7 826.2 +25.2
21 13.09 Ю 2 6000 м мгла 6/3 240 м
[Cu Sc Ac trans Ci]
+16.0 +13.4 85 +16 +16 1011.8 826.3
00 14.09 З 3 9000 м 6/3 240 м
[Cu Sc Ac trans Ci]
+18.8 +14.6 77 +20 +26 1012.3 826.7 +16.0
03 14.09 З 4 9000 м 6/3 240 м
[Cu Sc Ac trans Ci]
+21.6 +15.7 69 +25 +33 комфорт 1009.8 824.7
06 14.09 З 4 7000 м мгла 9/4 240 м
[Cu Sc Ac As Ci sp]
+22.0 +17.0 73 +26 +29 душно 1008.0 823.2
09 14.09 штиль 0 5000 м осадки на расстоянии 9/4 240 м
[Cu Sc Ac As Ci sp]
+20.6 +15.9 74 +23 +23 комфорт 1009.7 824.6
12 14.09 штиль 0 5000 м мгла 9/4 240 м
[Cu Sc Ac As Ci sp]
+19.2 +15.1 77 +21 +21 комфорт 1011.5 826.0 +23.6
21 14.09 штиль 0 5000 м мгла 5/4 270 м
[Cu med, cong Ac lent Ci fib]
+17.0 +14.4 85 +17 +17 1011.5 826.0
00 15.09 З 3 8000 м 8/4 270 м
[Cu med, cong Ac lent Ci]
+20.0 +14.6 71 +23 +27 комфорт 1011.9 826.4 +17.0
03 15.09 З 4 10 км 8/4 270 м
[Cu med, cong Ac lent Ci]
+23.0 +16.2 66 +28 +33 душно 1009.5 824.5
06 15.09 штиль 0 4000 м слаб. дождь 9/4 300 м
[Cu Sc As op Ci ing]
+22.4 +10.2 46 +24 +29 комфорт 1008.5 823.6 1
09 15.09 штиль 0 4000 м в посл. час дождь 9/4 300 м
[Cu Sc As op Ci ing]
+19.6 +16.5 82 +22 +22 комфорт 1010.2 824.9 2
12 15.09 штиль 0 7000 м слаб. морось {дождь} 9/4 300 м
[Cu Sc As op Ci ing]
+18.0 +15.8 87 +18 +18 1012.3 826.7 +23.8 0.0
21 15.09 штиль 0 3000 м осадки на расстоянии 9/9 210 м
[Sc Ac As Ci fib]
+16.2 +14.2 88 +16 +16 1011.5 826.1 2

 

Местоположение метеостанции Энаротали (Индонезия): широта -3.92 долгота 136.37 высота над уровнем моря 1770 м.

В архиве по умолчанию представлена погода в Энаротали за последнюю неделю. Архивные данные за месяц целиком и за предыдущие месяцы, начиная с января 2011 года, Вы можете получить, выбрав интересующий диапазон дат из раскрывающегося списка и нажав кнопку "Ввод!".


*Определитесь, кто Вы:
робот инопланетянин человек

Внимание! Время в таблицах - всемирное. Для получения местного времени необходимо прибавить поправку, которая равна 9 ч.

Смотрите также архив погоды в соседних городах и на ближайших метеорологических станциях:

Погода в Набире (Индонезия) (117 км)
Погода в Коконао (Индонезия) (170 км)
Погода в Серуи (Индонезия) (229 км)
Погода в Вамене (Индонезия) (287 км)
Погода в Каимана (Индонезия) (292 км)
Погода в Биаке (Индонезия) (306 км)
Погода в Сарми (Индонезия) (349 км)
Погода в Маноквари (Индонезия) (425 км)
Погода в Туале (Индонезия) (446 км)
Погода в Факфаке (Индонезия) (470 км)

Пояснения к столбцам:

Ветер - указаны скорость ветра в м/с - средняя за 10 мин, порывы в срок и между сроками (в фигурных скобках) и направление, откуда дует ветер: С - северный, СВ - северо-восточный, В - восточный, ЮВ - юго-восточный, Ю - южный, ЮЗ - юго-западный, З - западный, СЗ - северо-западный.
Видимость - горизонтальная дальность видимости в метрах или километрах. При видимости от 1 до 10 км при отсутствии осадков обычно наблюдается дымка, при ухудшении видимости до 1 км и менее - туман. В сухую погоду видимость может ухудшаться дымом, пылью или мглою.
Явления - указаны атмосферные явления, наблюдавшиеся в срок или в последний час перед сроком; фигурными скобками обозначены явления, наблюдавшиеся между сроками (за 1-3 часа до срока); квадратными скобками обозначены град или гололедные отложения с указанием их диаметра в мм.
Облачность - указаны через наклонную черту общая и нижняя облачность в баллах и высота нижней границы облаков в метрах; квадратными скобками обозначены формы облаков: Ci - перистые, Cs - перисто-слоистые, Cc - перисто-кучевые, Ac - высококучевые, As - высокослоистые, Sc - слоисто-кучевые, Ns - слоисто-дождевые, Cu - кучевые, Cb - кучево-дождевые. Подробнее классификацию облаков см. в Атласе облаков (PDF).
T - Температура воздуха - температура, измеренная на высоте 2 м над землей.
Td - Температура точки росы - температура, при понижении до которой содержащийся в воздухе водяной пар достигнет насыщения.
f - Относительная влажность воздуха - влажноcть воздуха, измеренная на высоте 2 м над землей.
Te - Эффективная температура - температура, которую ощущает одетый по сезону человек в тени. Характеристика душности погоды. При расчете учитывается влияние влажности воздуха и скорости ветра на теплоощущения человека.
Tes - Эффективная температура на солнце - температура, которую ощущает человек, с поправкой на солнечный нагрев. Характеристика знойности погоды. Зависит от высоты солнца над горизонтом, облачности и скорости ветра. Ночью, в пасмурную погоду, а также при ветре 12 м/с и более поправка равна нулю.
P - Атмосферное давление - приведенное к уровню моря атмосферное давление.
Po - Атмосферное давление - измеренное на уровне метеостанции атмосферное давление.
Tmin - Минимальная температура - минимум температуры воздуха на высоте 2 м над землей.
Tmax - Максимальная температура - максимум температуры воздуха на высоте 2 м над землей.
R - Количество осадков - Количество выпавших осадков за период времени, мм. При наведении курсора мыши на число - период времени, за который выпало указанное количество осадков.
R24 - Количество осадков - Количество выпавших осадков за 24 часа, мм.
S - Снежный покров - Высота снежного покрова, см. При наведении курсора мыши на число - состояние снежного покрова и степень покрытия местности в баллах.